{"data":{"norad_id":59747,"epoch":"2026-05-25T04:50:23.817120Z","epoch_age_seconds":57773,"freshness":"FRESH","line1":"1 59747U 24090T   26145.20166455  .00000525  00000+0  28610-4 0  9996","line2":"2 59747  43.0005 111.2242 0000997 271.4578  88.6160 15.27575622115141","mean_motion":15.27575622,"eccentricity":9.97e-5,"inclination_deg":43.0005,"raan_deg":111.2242,"arg_perigee_deg":271.4578,"mean_anomaly_deg":88.616,"bstar":2.861e-5,"rev_number":11514,"period_min":94.267018880195,"perigee_km":482.37814381716,"apogee_km":483.74626693872,"semimajor_km":6861.1992053779,"source":"CELESTRAK","updated_at":"2026-05-25T13:38:19.054056Z"}}